Weather in Babanka

Ukraine / Cherkassi District     48°42′20″N   30°27′00″E
temp.,
°C
wind,
m/s
gust,
m/s
humid.,
%
clouds,
%
prec.,
mm/h
press.,
hPa
HPBL,
m
19 january, wed
wed1923:00−4nnw91576100 0.0 10231149
02:00−5nnw81476100 0.0 1024862
05:00−6nnw714806 0.0 1025653
08:00−6nnw51282100 0.0 1027510
11:00−4nnw596881 0.0 1027545
14:00−2nw5760100 0.0 1025648
17:00−3w2387100 0.0 102452
20:00−4wsw37935 0.0 1023138
20 january, thu
thu2023:00−4wsw37935 0.0 1021152
02:00−5sw3694100 0.0 1020130
05:00−3sw378985 0.0 1017209
08:00−4ssw4985100 0.0 1015188
11:00−1s51160100 0.0 1014380
14:00+1sw585720 0.0 1011599
17:00−2sw367398 0.0 101086
20:00−1w2675100 0.0 1010219
21 january, fri
fri2123:00−2sw368197 0.0 1009107
02:00−2sw31086100 0.0 1008256
05:00−3w61184100 0.1 1010771
08:00−4w714785 0.1 1011746
11:00−2w7126649 0.0 10121165
14:00−1w813595 0.0 10111255
17:00−3w8136641 0.0 1011879
20:00−3w7147561 0.0 1012773
22 january, sat
sat2223:00−3w7147823 0.0 1012671
02:00−4w7138373 0.0 1012628
05:00−4w6127953 0.0 1012601
08:00−5wsw6128456 0.0 1013554
11:00−3wsw7975100 0.0 1013783
14:00−2w6867100 0.1 10131079
17:00−3wsw598128 0.0 1015452
20:00−4wsw49906 0.0 1016357
23 january, sun
sun2323:00−5wsw369584 0.0 1017171
02:00−5wnw249672 0.0 1019138
05:00−6nw249484 0.0 1020151
08:00−7nnw239432 0.0 1022101
11:00−5nne337996 0.0 1023416
14:00−3ne3370100 0.1 1023851
17:00−4nne4681100 0.1 1025489
20:00−4nne5889100 0.1 1025590